Theta_e
309 309 309 308 309 308 309 309 309 309 309 309 309 308 308 308 308 308 309 309 309 310 313 314 314 315 315 314 313 312 313 315 318 321 319 318 318 317 316 314 313 312 312 312 315 318 316 315 316 316 319 321 321 324 323 322 324 324 325 325 322 324 323 324 325 322 322 322 319 317 317 317 317 316 314 314 314 315 315 316 316 316 315 312 311 313 312 310
309 309 309 309 309 309 309 309 309 309 309 309 309 309 308 308 308 308 308 308 309 310 311 314 314 314 315 314 313 313 313 314 317 320 319 319 319 317 315 313 312 312 311 315 318 317 316 317 316 316 319 321 323 324 324 323 323 325 327 325 323 325 324 323 321 320 320 320 319 318 318 316 317 317 314 314 316 315 314 315 315 316 315 310 309 312 310 308
310 310 310 310 310 310 309 309 309 309 309 309 309 309 309 308 308 307 308 308 308 309 311 314 314 314 315 314 314 312 312 317 320 320 320 320 320 317 315 312 311 311 312 315 318 316 316 317 316 318 318 319 323 324 324 324 321 323 324 324 325 324 323 321 320 319 318 318 318 318 318 317 317 317 314 315 316 316 315 315 315 316 315 312 309 311 309 308
309 309 309 310 310 309 310 309 309 309 309 309 309 309 309 309 308 308 307 307 308 309 311 313 314 315 315 315 314 312 317 323 323 320 320 320 319 317 314 311 310 311 311 313 315 314 315 316 316 317 318 319 321 323 323 322 322 323 322 323 324 322 322 321 318 318 317 317 316 317 318 317 317 316 314 314 315 316 316 316 316 316 315 314 310 310 309 308
309 309 309 309 309 309 309 309 309 309 309 309 309 309 309 309 308 308 308 307 308 308 310 313 314 315 314 315 313 313 321 325 322 320 318 319 318 315 312 310 310 310 311 313 314 314 314 316 317 318 319 319 321 323 322 321 322 322 321 322 321 320 320 319 317 318 317 315 315 315 316 316 316 316 315 315 315 316 316 316 317 316 317 315 310 309 309 308
309 309 309 309 308 309 309 309 309 309 309 309 308 308 308 308 308 308 308 307 307 307 310 313 314 314 315 315 313 319 325 322 321 321 315 316 315 312 311 310 310 310 311 313 313 315 316 316 317 319 319 319 320 321 321 321 320 320 320 320 320 319 319 318 317 317 315 314 315 315 315 316 316 316 316 316 315 315 317 317 317 317 316 314 310 309 310 309
310 310 309 309 309 309 308 308 308 308 308 308 308 308 308 308 308 308 308 307 307 307 309 312 314 314 314 315 316 321 325 321 321 319 312 313 313 310 310 310 311 310 311 313 314 315 316 318 318 319 319 319 319 319 320 320 318 318 319 318 318 319 318 318 317 316 314 314 315 315 314 315 315 315 315 315 315 315 316 316 316 316 313 312 311 310 310 310
311 311 310 310 310 309 309 309 309 309 308 308 308 308 308 308 308 308 308 307 308 307 308 311 313 313 314 320 323 321 322 322 320 317 313 312 310 310 311 311 311 310 312 314 314 315 317 318 318 319 320 320 319 318 319 318 318 318 318 318 318 318 318 317 317 316 314 314 314 315 314 314 314 315 315 315 315 315 316 316 316 315 313 314 312 310 310 310
312 312 311 311 310 310 310 309 309 309 309 309 309 308 308 308 308 308 308 307 307 307 308 311 313 315 314 320 324 321 322 323 319 316 314 312 311 310 311 313 312 310 313 314 314 315 317 318 319 319 319 319 319 319 318 318 318 317 317 317 316 316 316 316 317 316 315 314 314 314 314 314 314 315 315 314 315 315 316 316 316 315 314 314 313 311 310 311
313 312 312 311 311 310 310 310 310 309 309 310 309 309 309 308 308 308 308 308 307 307 308 311 314 314 314 319 321 320 322 321 317 316 315 314 313 311 311 314 313 311 314 315 314 314 316 319 320 320 319 318 317 318 319 318 317 316 316 315 314 314 315 315 316 316 316 314 314 314 313 314 314 314 315 315 315 315 315 315 316 315 314 313 313 312 311 311
313 313 312 312 311 310 310 309 309 309 309 310 310 310 310 309 309 308 308 308 308 307 307 311 313 314 317 321 320 320 321 317 315 315 314 314 314 313 312 313 312 312 314 314 314 315 316 318 318 318 318 317 316 318 318 316 315 315 315 314 314 314 314 315 315 315 316 315 315 314 313 314 314 315 314 315 316 316 316 315 315 316 315 314 313 313 313 312
313 313 312 312 311 310 310 309 308 309 309 309 310 310 310 310 310 309 309 308 308 308 308 311 313 314 318 321 319 320 319 316 315 314 314 313 313 313 313 312 311 312 315 315 316 317 315 317 318 317 317 317 317 318 317 314 314 314 314 314 314 315 315 316 315 316 315 315 315 313 313 314 314 314 314 314 315 315 315 316 316 317 316 315 313 313 313 312
313 313 313 312 311 310 309 308 308 307 307 307 308 309 309 309 310 310 310 309 308 308 309 312 313 314 318 319 318 319 318 316 315 314 313 312 312 312 312 312 310 311 313 314 318 317 313 315 317 317 316 317 317 316 314 313 314 314 314 314 315 315 316 316 316 316 315 314 315 314 313 314 314 315 314 314 315 314 315 315 316 317 316 315 313 313 313 311
314 313 313 312 311 310 309 308 307 306 306 306 306 307 307 307 309 310 310 309 308 309 311 313 313 316 319 318 318 318 317 316 314 314 313 312 313 313 311 311 310 310 311 312 317 316 312 313 316 316 315 315 316 314 314 315 315 314 315 316 316 316 316 318 317 317 316 313 314 314 313 314 314 315 315 316 316 314 314 314 314 315 315 314 313 313 313 312
314 314 313 312 311 309 309 308 307 306 306 306 306 305 305 305 306 308 310 309 308 310 313 313 314 318 320 318 318 317 314 315 314 314 314 313 315 315 312 312 311 311 311 312 314 312 312 313 315 316 314 314 314 315 316 316 316 315 315 317 319 317 317 318 317 316 316 312 312 314 314 314 313 315 317 316 315 314 314 314 314 314 314 314 314 313 312 312
314 314 313 312 311 310 309 309 307 306 306 306 306 306 305 304 305 307 308 309 310 311 314 316 315 317 318 317 318 316 314 314 314 315 314 312 315 316 314 313 312 312 312 311 311 311 312 314 315 317 314 313 314 316 317 318 318 318 317 317 319 318 317 318 316 315 315 314 312 313 315 315 314 316 317 315 315 314 314 314 314 314 314 314 314 313 313 312
314 314 314 312 311 310 310 309 307 306 306 305 306 306 306 306 306 307 309 310 313 313 314 318 317 315 315 315 316 317 316 316 315 316 314 312 314 316 314 313 313 313 312 311 312 313 313 314 316 316 315 314 315 317 319 320 319 319 319 317 319 319 317 318 317 315 315 315 313 313 313 313 314 316 316 315 316 314 314 315 315 315 314 314 315 314 314 313
314 314 314 313 312 311 311 310 308 305 305 305 306 306 306 307 306 308 311 312 314 316 315 316 317 316 316 316 315 317 318 317 316 316 314 312 312 314 314 313 314 313 313 313 313 314 314 315 317 317 317 316 315 316 319 320 317 317 318 316 316 317 316 317 317 315 315 315 314 313 313 313 313 314 315 315 315 314 314 315 314 314 314 314 314 315 315 314
314 314 313 313 312 311 311 311 308 305 305 306 305 305 309 313 312 312 317 316 315 318 318 316 317 318 317 317 317 317 318 317 315 315 313 311 311 312 313 313 314 314 313 315 314 314 316 317 319 321 319 316 315 316 317 318 316 316 317 316 315 316 315 317 317 315 314 315 314 314 314 313 313 314 315 315 315 315 314 314 314 313 314 314 314 315 316 315
314 314 313 313 312 312 312 311 309 306 305 306 306 310 315 320 318 315 316 316 315 315 316 316 316 317 317 319 319 316 316 314 314 314 313 311 310 311 312 312 315 316 314 317 317 316 317 319 321 321 318 316 317 316 316 317 317 317 317 317 317 317 315 316 317 316 314 314 315 314 314 314 314 314 315 315 315 315 315 314 314 313 314 314 314 316 316 316
313 313 313 313 312 312 312 312 309 306 305 308 312 316 316 317 319 316 312 312 315 315 315 315 315 315 316 318 316 315 316 315 314 315 313 311 311 311 312 311 315 317 315 316 319 317 318 319 319 318 316 316 317 316 317 318 317 317 318 318 317 316 316 315 317 315 313 314 315 315 315 314 314 314 314 316 315 315 315 314 314 314 314 314 315 317 317 318
313 313 312 312 313 313 313 312 310 307 307 310 315 319 315 312 314 313 310 311 313 315 315 315 315 314 313 315 315 315 316 315 315 316 314 312 312 312 312 312 314 316 315 315 318 319 320 319 318 317 316 316 316 317 318 318 319 319 319 319 317 316 316 316 317 314 311 313 315 315 315 314 314 315 314 315 315 314 315 314 315 314 314 314 315 316 318 322
313 313 312 313 313 313 314 313 311 311 311 311 314 316 312 309 308 308 311 313 311 312 313 314 314 314 312 313 314 314 314 313 314 317 314 312 312 313 313 312 313 315 315 315 316 318 320 318 317 317 317 316 315 316 318 318 318 319 318 318 316 316 317 316 315 313 310 312 314 315 314 313 313 314 314 314 314 314 315 315 316 316 316 315 316 317 321 324
314 313 313 313 313 314 314 313 314 313 311 313 314 311 309 309 307 308 314 315 311 312 313 313 314 314 312 313 313 312 313 312 311 315 314 312 313 313 313 313 313 314 314 314 316 318 318 317 318 318 317 317 317 317 319 318 316 318 320 318 315 316 317 316 317 317 314 312 313 314 314 314 314 315 315 315 315 315 315 315 315 316 316 317 318 320 323 323
314 314 313 313 313 314 313 315 316 311 310 314 313 309 308 309 308 309 314 316 313 314 316 316 317 316 314 312 313 312 311 311 312 315 312 312 313 313 312 313 313 314 314 314 315 316 317 317 319 319 319 321 320 318 320 321 317 316 321 320 317 316 316 317 320 321 322 320 315 315 316 316 317 318 317 317 318 316 315 315 315 315 315 317 318 319 322 322
314 314 314 313 313 314 314 316 315 310 312 315 311 308 306 307 308 309 314 318 317 317 317 316 316 315 314 313 312 312 311 311 312 313 312 312 313 313 313 313 313 314 314 315 315 316 316 317 319 320 320 322 324 320 320 322 317 314 323 326 319 318 320 322 322 322 326 325 316 317 320 318 316 317 316 318 320 318 317 316 316 316 315 317 317 317 321 322
315 314 314 314 313 314 315 316 314 312 315 315 311 308 306 306 306 309 316 319 318 320 318 314 314 314 314 313 312 311 310 311 312 312 311 312 312 313 313 313 313 314 314 315 316 317 317 317 320 321 321 323 323 319 318 320 317 318 326 329 321 319 323 324 324 324 325 321 317 319 321 319 316 315 316 317 318 318 317 316 316 316 315 316 317 317 322 322
316 315 315 314 314 314 314 315 313 313 315 313 310 309 307 307 307 311 319 320 319 321 318 314 312 312 313 312 312 312 310 310 315 313 308 309 311 313 314 313 313 313 313 315 316 319 321 321 322 322 322 322 320 320 323 321 319 320 323 322 320 321 321 320 321 323 322 318 319 322 321 319 317 316 316 316 316 316 316 315 316 316 314 316 317 318 322 322
317 316 316 315 315 314 314 314 313 313 312 310 309 309 308 307 309 315 318 318 320 319 316 313 312 312 313 312 312 313 310 310 313 310 307 309 310 310 312 312 312 313 313 313 314 319 321 318 318 321 321 320 318 321 327 326 321 320 321 319 319 319 317 317 319 319 318 317 319 322 320 318 317 317 318 316 315 315 315 315 315 314 314 315 317 320 323 321
320 319 317 316 315 315 315 314 314 314 311 309 309 309 308 309 313 317 317 317 319 318 313 312 313 313 313 312 312 312 311 310 309 308 309 310 310 309 310 311 311 313 315 316 317 317 315 311 313 319 319 316 318 317 317 321 319 318 319 318 319 319 316 316 316 316 318 318 317 320 319 317 317 319 319 316 316 316 315 314 313 314 315 315 319 324 325 321
321 321 319 317 317 316 316 316 316 314 311 310 310 309 311 314 314 315 318 316 315 318 315 312 314 314 312 314 316 313 311 311 309 310 311 310 311 310 310 313 313 314 317 318 317 317 315 312 313 319 318 314 318 317 312 313 315 318 318 316 319 321 319 318 316 316 319 319 318 320 320 317 318 318 316 315 316 315 315 314 314 315 316 316 322 327 324 320
323 322 321 319 319 317 316 317 316 313 310 310 311 311 314 317 314 315 316 314 315 319 319 317 316 315 314 315 318 315 313 314 311 310 312 312 312 311 311 314 315 317 320 319 318 319 319 316 315 319 318 315 319 319 313 311 314 319 319 316 319 321 320 321 321 323 322 319 320 323 320 318 317 316 316 316 316 315 315 314 315 317 318 321 328 328 323 321
324 323 321 320 320 317 317 317 315 314 311 308 311 313 313 315 318 320 316 315 319 319 320 321 318 317 317 318 319 318 318 318 313 310 313 315 314 313 313 314 316 318 321 320 320 323 325 322 318 318 317 315 316 316 316 317 315 315 318 319 322 322 320 321 324 326 324 320 320 319 321 322 317 316 317 316 315 316 316 316 318 321 319 323 333 329 322 321
324 323 321 321 321 319 318 316 315 315 311 310 316 316 313 314 320 323 320 317 318 318 320 321 319 318 320 320 321 321 320 320 315 311 314 317 316 317 316 314 315 317 319 319 319 322 324 322 319 320 319 316 314 313 315 320 315 312 315 318 321 322 319 319 321 322 321 321 319 316 322 323 317 318 321 317 316 316 315 317 320 323 322 326 333 328 323 321
323 322 322 321 319 319 318 315 315 315 311 313 319 317 313 316 319 321 321 319 317 317 317 318 320 321 321 322 323 321 320 321 318 314 316 317 317 319 318 315 314 314 318 320 320 319 319 320 320 319 318 315 314 315 316 321 320 315 315 317 318 320 318 318 321 319 318 321 319 317 322 321 314 316 319 316 317 316 315 316 318 320 323 327 330 328 325 320
322 321 320 319 317 318 317 315 315 314 312 315 317 314 315 318 319 319 318 316 316 318 317 316 320 323 322 322 324 322 320 320 320 318 318 317 317 317 318 318 316 314 316 319 320 319 318 321 322 317 316 314 313 316 318 321 321 316 317 318 318 320 319 319 322 320 317 319 318 316 319 317 313 315 316 315 317 316 315 315 315 317 320 324 326 327 326 320
320 319 318 318 318 318 317 316 314 311 312 316 315 315 316 317 318 318 316 314 314 315 318 318 320 321 319 319 323 324 321 319 320 320 320 320 319 318 317 318 318 314 315 316 319 322 318 319 322 318 316 313 308 311 315 316 317 317 320 320 318 321 321 318 320 321 321 320 318 316 316 315 314 316 316 315 315 314 315 314 314 315 317 321 323 326 324 319
319 318 318 318 318 318 317 316 312 310 312 315 315 317 317 316 315 314 315 316 315 314 316 317 318 320 319 318 321 324 321 319 320 320 320 320 320 320 318 319 320 316 315 315 318 324 321 317 320 318 315 312 308 310 314 314 315 316 317 316 317 320 322 320 319 320 321 319 316 316 316 314 314 314 315 315 314 313 314 314 314 314 316 319 322 325 323 318
317 318 319 319 318 318 318 314 311 311 313 314 314 317 318 317 316 315 314 314 315 315 314 315 316 317 319 319 319 323 321 319 320 319 318 318 319 321 320 320 322 319 315 315 316 320 319 317 319 316 312 312 310 312 317 318 315 312 312 314 314 316 319 321 319 318 318 316 316 316 316 314 314 314 315 315 314 313 313 314 314 314 315 318 320 322 322 320
317 319 320 318 318 318 315 312 310 311 313 314 315 316 317 317 316 316 314 313 314 314 313 315 317 316 318 319 318 319 320 320 321 319 318 318 317 321 320 318 321 321 317 316 317 318 318 317 317 316 312 314 314 313 316 318 316 314 314 314 314 313 315 317 318 318 317 316 315 315 315 314 314 315 317 316 313 313 314 315 316 317 316 318 319 320 320 320
317 320 319 316 316 316 312 310 311 312 314 315 316 315 315 316 316 316 315 314 314 312 311 313 316 315 315 315 314 315 318 321 322 318 318 317 315 318 319 317 319 320 319 320 319 319 320 318 316 317 315 315 316 315 314 315 316 315 314 314 314 314 315 315 316 317 317 316 315 315 316 314 314 317 318 315 313 313 315 316 318 320 320 319 321 321 320 319
317 319 317 315 315 313 311 311 312 312 313 315 316 316 315 315 315 316 315 313 313 311 310 311 312 312 312 312 313 313 315 321 323 319 318 317 315 316 318 317 317 318 320 323 320 319 321 319 316 317 317 315 316 318 317 315 315 316 315 315 314 313 314 315 315 315 315 316 316 316 316 314 315 318 317 314 314 315 318 320 320 322 324 322 321 321 319 318
317 318 314 313 313 312 313 314 312 311 312 313 314 314 315 316 316 316 315 315 314 312 312 311 311 311 312 311 312 312 313 317 319 316 314 316 315 314 317 317 315 314 316 318 318 317 319 317 315 316 317 317 317 317 315 312 311 314 316 316 315 314 314 314 314 314 315 316 315 316 316 315 315 319 318 316 316 316 318 319 318 319 321 321 321 320 318 318
316 316 312 311 312 313 316 317 314 312 312 311 312 313 313 315 315 315 316 316 316 314 313 313 312 312 313 312 312 312 312 314 317 316 314 314 314 313 315 315 312 312 313 314 317 316 316 316 317 316 316 317 317 316 315 312 311 312 314 315 315 315 315 315 315 314 314 315 315 315 315 314 314 318 319 317 317 315 315 317 317 318 317 317 318 317 317 316
313 315 313 311 311 313 316 318 316 315 313 312 312 312 313 314 315 315 315 315 316 315 314 315 315 314 313 313 312 313 314 314 316 317 316 315 314 313 314 314 312 312 312 315 319 316 314 318 319 317 316 316 317 316 317 317 314 312 313 313 313 314 315 316 315 315 315 315 314 314 314 313 312 314 315 315 314 314 313 313 314 315 314 315 316 316 315 314
312 314 315 312 311 313 315 316 317 317 315 314 313 313 313 314 315 315 314 315 316 315 314 315 315 314 314 314 314 315 316 315 315 316 316 316 315 314 314 314 313 313 312 316 318 315 313 316 317 316 316 316 316 316 317 318 315 312 313 313 313 313 314 314 315 315 315 315 315 315 314 314 313 312 312 312 312 312 312 312 312 311 312 314 316 316 314 312
310 313 316 315 312 313 314 314 316 317 316 315 315 314 314 314 314 315 315 315 315 315 315 315 314 314 315 315 316 316 316 316 316 315 315 315 315 315 315 314 313 314 313 314 316 315 313 314 314 315 315 315 316 316 315 315 314 314 314 314 313 313 314 315 315 314 314 315 315 314 314 315 314 312 312 312 311 311 311 311 312 311 311 313 315 314 312 311
307 310 313 313 312 313 314 314 314 315 316 316 316 315 315 315 315 315 315 315 315 315 316 316 315 314 315 315 316 316 316 316 316 315 314 314 314 314 314 313 312 313 312 311 313 314 313 312 313 314 314 314 314 314 314 314 314 313 313 313 313 313 313 314 314 313 313 314 314 313 314 315 313 311 312 312 311 311 312 311 311 311 311 311 312 312 313 312
305 308 309 309 309 312 314 312 311 312 313 314 315 315 316 316 316 315 315 315 316 316 316 317 317 315 314 315 316 316 316 317 317 316 315 314 314 314 314 314 313 312 310 310 312 314 312 311 312 313 313 314 314 313 314 314 313 313 313 313 312 313 313 313 313 312 313 313 313 312 313 313 312 311 312 311 311 312 311 311 311 310 310 310 310 311 314 313
303 305 305 304 305 306 309 309 309 309 310 310 312 313 314 315 315 316 315 315 316 316 316 317 317 316 316 315 315 315 315 316 317 317 316 316 315 314 313 314 315 312 309 308 311 312 311 311 312 313 313 313 313 313 313 313 313 313 313 313 312 312 313 313 313 313 313 313 312 312 313 312 311 311 311 311 311 311 310 310 310 309 310 310 309 310 313 314
301 302 301 301 301 302 305 308 309 309 309 309 310 311 311 312 313 314 315 314 315 316 316 316 316 316 317 316 315 315 314 315 316 316 316 316 316 315 314 314 314 313 309 308 310 311 310 311 312 313 313 313 313 313 312 312 312 313 313 313 313 313 313 313 313 313 313 313 313 313 314 313 311 311 311 311 311 311 311 310 310 309 309 310 309 310 312 313
299 299 300 300 300 301 303 305 307 308 309 309 310 310 311 311 312 313 314 314 315 315 315 314 314 315 316 316 316 315 314 315 315 315 315 315 315 315 315 314 314 314 312 309 310 311 310 310 311 313 314 314 314 314 313 313 313 314 313 313 312 312 313 313 313 313 312 313 313 314 314 312 311 311 311 311 311 311 312 310 310 310 309 310 310 310 310 311
Wind_Speed
12 13 13 13 13 13 14 14 14 13 13 13 13 13 13 14 14 14 14 14 14 13 10 7 7 6 5 7 8 8 7 8 10 9 8 9 9 8 10 10 11 9 6 4 1 4 5 7 9 9 6 4 3 3 4 3 2 1 2 3 4 5 5 2 2 2 1 1 2 4 5 4 2 3 2 2 3 4 4 5 4 5 2 7 10 16 23 25
13 13 14 14 14 14 14 14 14 14 14 14 13 13 13 14 14 14 14 14 14 14 11 8 7 7 6 6 7 8 8 9 12 13 15 16 13 12 12 11 11 9 5 3 3 5 6 5 7 9 5 2 4 3 3 3 2 3 3 3 5 5 4 1 4 4 2 3 2 2 5 4 3 5 3 1 5 6 7 7 6 8 5 8 11 18 23 23
13 13 14 14 15 15 15 15 15 15 15 15 14 14 14 14 15 15 15 14 15 15 12 8 7 8 7 5 5 6 6 8 10 10 15 18 17 15 13 10 9 7 6 4 4 6 7 8 6 4 4 3 4 4 3 2 2 4 3 3 6 3 4 4 4 3 3 4 5 4 2 3 5 2 4 2 6 6 9 8 7 10 9 8 10 16 21 21
13 14 14 15 15 15 16 16 16 16 15 15 15 15 15 15 15 15 15 15 15 16 14 9 7 7 6 4 4 5 4 5 5 4 9 15 17 16 13 9 8 7 6 5 6 7 8 9 8 5 4 4 4 4 3 3 2 3 4 4 7 3 4 4 5 5 5 5 4 6 2 2 5 2 4 4 6 7 9 9 10 13 14 12 11 14 20 19
13 14 15 15 16 16 16 16 16 16 16 16 15 15 15 15 15 15 15 16 15 16 15 9 7 6 5 3 3 3 1 2 1 0 4 10 14 14 12 9 7 5 5 5 5 6 8 9 6 4 3 4 4 4 4 6 4 2 5 7 9 7 6 1 4 5 4 3 2 5 5 4 3 4 5 6 7 8 5 5 6 8 10 12 15 15 17 16
13 14 15 16 16 17 17 17 18 17 17 17 16 16 15 15 15 15 15 15 15 15 14 10 7 7 5 2 3 3 2 2 0 1 1 6 10 11 10 8 6 5 5 5 5 5 6 7 5 3 3 4 5 6 6 6 5 3 6 7 9 9 7 3 2 2 1 1 4 4 4 2 3 5 6 9 13 11 5 2 1 2 1 9 17 15 14 14
14 14 15 15 16 17 17 18 18 18 18 17 17 16 16 15 15 14 14 15 14 14 14 10 7 6 3 2 3 2 3 4 1 2 3 6 9 10 8 7 6 5 5 5 6 6 5 5 5 4 4 5 6 7 3 3 5 4 6 8 9 7 6 6 1 4 3 4 6 2 3 2 7 6 5 11 15 13 10 6 3 5 6 11 14 13 14 15
15 16 16 16 16 17 17 17 18 18 19 18 18 17 16 16 15 14 14 14 14 14 13 9 6 5 0 3 1 3 4 5 4 4 5 8 10 9 8 6 5 6 5 7 7 6 5 5 7 4 4 4 4 4 2 2 4 6 7 8 6 3 4 6 3 5 5 6 5 3 4 8 10 5 8 16 14 10 10 8 5 6 6 9 11 13 13 13
17 17 17 17 17 17 17 17 18 18 19 19 19 17 17 16 15 15 14 14 14 14 12 8 6 5 3 3 2 4 3 5 6 5 6 8 9 9 8 6 6 6 5 7 8 7 4 3 5 2 3 4 5 6 2 1 3 4 5 6 5 6 7 7 7 7 6 5 4 5 9 11 8 4 11 19 16 12 9 9 8 7 7 8 9 12 12 12
18 19 19 19 19 19 19 18 18 19 19 19 19 18 17 16 16 15 14 14 14 13 11 7 5 4 5 3 3 4 3 3 5 5 6 7 8 8 8 8 7 7 6 8 8 8 4 2 2 2 2 4 6 6 2 2 2 1 4 7 8 10 10 8 10 8 7 6 7 8 10 10 5 2 10 13 9 10 11 11 11 8 8 9 8 9 11 12
20 21 21 21 21 22 22 21 20 20 20 20 20 19 18 17 16 16 15 14 13 13 11 8 5 4 5 3 4 4 4 4 4 5 5 7 8 8 9 10 9 9 9 8 10 10 6 3 1 2 0 1 3 4 3 1 3 3 5 8 10 11 12 11 12 11 7 6 8 9 8 9 3 4 14 13 2 4 9 10 11 11 10 9 10 9 9 10
20 21 22 23 24 25 25 24 23 22 22 22 21 20 19 17 16 16 16 14 13 13 10 6 5 5 5 4 7 9 7 6 5 5 6 6 7 8 9 9 9 10 9 7 8 10 8 4 2 3 3 1 3 5 2 2 4 4 3 6 12 11 12 14 13 11 8 5 7 7 5 9 9 11 19 17 6 5 7 8 9 10 10 8 9 9 8 10
19 21 22 24 25 26 26 26 25 25 24 24 24 22 20 18 16 16 16 14 13 11 7 5 5 6 4 4 8 13 13 10 7 6 7 6 6 7 8 9 9 11 10 7 4 7 8 5 4 5 3 2 4 2 1 1 1 4 3 5 10 8 9 13 13 11 9 5 8 7 3 7 11 16 19 16 8 9 8 9 9 8 8 8 8 8 9 10
19 21 22 23 24 25 26 26 26 26 25 25 25 24 23 19 17 16 15 14 12 9 5 4 5 4 3 4 7 11 13 12 9 7 7 6 4 4 6 6 7 8 9 8 5 5 7 6 3 4 2 2 3 2 3 4 3 3 5 5 5 4 7 8 4 10 9 4 9 7 4 7 10 12 16 14 9 10 10 9 9 8 8 8 8 9 10 10
18 20 21 22 23 24 25 25 25 26 25 25 25 24 23 19 16 14 14 13 11 8 4 4 6 4 2 6 7 7 9 9 8 9 8 7 6 4 4 5 4 5 6 6 5 5 6 5 2 2 1 1 1 2 4 5 4 4 2 4 5 4 7 6 2 12 10 3 7 7 3 8 11 11 7 7 10 10 10 9 9 10 10 10 9 10 10 10
18 19 20 21 22 23 24 25 26 26 25 25 25 23 21 18 14 13 13 11 8 6 4 3 8 7 3 4 3 4 6 6 7 10 9 10 9 4 6 6 3 4 3 4 4 4 5 3 1 0 1 1 2 4 3 4 5 4 5 5 6 5 8 5 2 7 8 5 6 10 5 6 8 7 1 4 9 9 9 9 10 11 11 11 10 9 10 10
18 18 20 21 22 22 23 25 26 25 25 25 24 22 19 15 13 12 10 8 5 6 7 3 4 7 3 3 4 3 4 6 8 10 10 12 11 6 8 6 4 6 3 3 3 3 4 3 1 1 2 4 4 4 2 5 6 4 5 5 7 8 8 5 2 4 6 6 6 10 9 10 9 6 2 3 7 9 10 9 10 10 10 11 10 9 10 10
17 18 19 20 21 22 23 24 26 26 26 25 22 21 18 14 11 9 5 5 4 4 5 4 2 4 4 5 5 1 5 6 9 9 10 13 11 8 8 4 4 6 4 3 3 3 3 3 3 1 3 4 4 5 5 7 7 5 6 5 6 7 7 8 5 2 8 6 6 8 10 15 14 10 9 9 8 9 11 10 11 12 12 13 12 10 9 10
17 17 18 20 20 21 22 23 25 25 25 24 20 16 14 9 5 4 6 7 5 3 3 4 6 4 2 5 5 3 5 7 8 8 9 11 11 8 6 4 3 5 4 2 4 6 4 2 3 3 6 7 8 9 10 11 10 10 10 7 7 7 7 12 9 4 9 7 7 10 11 15 14 11 11 13 11 11 12 10 11 12 12 13 12 10 9 11
16 17 18 19 19 20 21 22 24 23 22 21 19 13 7 4 2 2 4 6 7 7 6 4 10 8 3 3 6 5 5 6 6 6 11 12 10 7 5 4 3 3 4 4 5 4 3 4 5 7 11 10 9 12 14 14 13 12 11 9 8 8 9 14 10 4 8 6 8 12 12 14 15 12 12 12 12 13 13 11 11 12 12 14 13 10 11 12
15 16 17 18 18 20 20 22 24 21 17 15 15 9 3 2 3 2 0 6 12 14 12 8 11 11 6 4 9 9 4 3 5 6 13 13 11 8 5 6 4 3 6 6 3 1 1 6 9 14 16 11 8 11 12 11 12 11 9 7 8 8 11 14 8 3 7 5 7 9 10 13 15 13 11 11 13 14 14 14 14 15 15 14 12 11 11 7
14 14 16 17 18 20 20 23 22 16 13 11 9 6 3 4 2 1 1 6 10 13 13 11 10 9 5 4 9 9 2 4 6 6 13 13 9 7 5 7 7 6 6 6 4 2 4 9 13 16 13 10 11 10 8 9 10 9 6 5 7 8 10 12 6 3 4 3 5 8 9 12 14 13 12 13 14 14 14 15 17 16 15 14 12 11 8 5
13 13 14 15 17 20 21 23 18 11 12 10 7 6 5 4 1 3 1 4 7 10 10 12 12 10 9 7 8 9 5 8 9 7 17 16 7 6 5 7 9 7 6 8 9 7 6 8 13 16 13 12 13 10 7 7 8 7 6 5 8 10 8 7 4 3 4 5 5 7 7 9 12 13 14 17 17 16 16 16 17 16 14 15 14 10 7 8
13 13 13 14 17 19 21 21 12 8 12 9 4 6 6 3 1 3 1 4 6 8 8 10 10 9 12 8 8 12 8 9 7 6 19 19 7 4 5 7 8 7 7 11 13 13 13 7 5 9 11 12 12 9 7 6 7 8 7 8 10 12 11 10 6 3 4 6 4 4 7 8 10 13 14 13 14 15 14 13 15 15 14 14 13 9 7 9
13 13 14 14 16 18 21 15 6 10 15 6 3 7 7 2 1 3 2 4 5 3 2 4 4 6 11 8 10 10 4 7 6 3 16 17 8 5 4 5 6 8 11 13 14 13 14 9 6 7 6 7 8 7 7 6 8 8 7 12 16 15 13 12 9 4 3 5 2 1 6 7 7 11 12 7 7 10 9 11 14 14 13 13 11 9 8 8
14 14 14 14 15 19 17 7 6 15 11 2 5 9 7 3 2 2 2 3 6 2 2 3 4 6 9 6 7 6 3 5 2 5 15 13 6 4 3 4 4 9 10 9 9 7 7 5 6 8 8 7 7 6 7 8 8 9 5 8 12 12 10 10 8 4 2 5 2 3 2 8 6 8 10 5 6 9 8 10 14 12 11 11 11 10 7 9
15 14 14 13 14 15 10 5 12 15 4 2 10 11 8 4 3 3 1 3 6 3 4 2 1 3 6 3 4 6 1 2 3 4 6 4 3 3 5 7 5 6 4 1 5 4 4 5 4 6 7 6 7 8 9 9 7 7 1 1 3 3 6 5 4 5 4 4 3 4 4 8 12 7 10 9 7 9 9 10 12 12 12 10 11 11 8 10
17 16 14 13 13 12 8 9 12 8 3 8 12 11 9 5 3 2 1 4 4 4 3 2 0 2 2 2 1 3 1 1 2 1 2 2 1 2 6 10 7 6 4 4 7 3 2 6 7 8 7 6 8 7 5 8 7 4 1 2 3 2 2 1 2 5 3 4 4 6 7 6 13 4 8 11 10 10 12 12 12 14 14 10 10 11 9 10
18 17 16 14 13 12 10 10 7 5 8 10 10 10 7 3 2 1 1 5 2 3 1 2 2 1 3 2 3 2 1 1 1 1 2 1 2 0 4 6 6 7 4 6 10 6 0 3 4 5 6 7 6 0 2 3 5 3 2 3 5 2 1 2 2 2 3 5 7 7 8 5 12 5 6 7 9 10 11 11 12 14 14 11 9 10 9 9
20 18 17 15 12 10 9 8 9 9 9 8 8 9 6 2 1 0 5 6 1 1 1 2 1 3 7 4 3 5 4 0 2 1 1 1 1 0 2 2 2 5 6 5 9 8 1 3 1 2 4 4 3 4 3 2 3 3 2 3 3 1 1 1 2 2 1 9 7 10 13 9 10 4 7 8 8 10 10 8 11 12 12 11 8 8 9 9
21 20 18 18 15 9 5 5 8 7 6 6 8 6 3 2 1 4 8 3 2 1 3 2 3 7 9 8 5 5 6 3 3 4 3 1 2 2 2 1 1 1 4 5 8 8 4 1 1 1 1 4 5 2 0 1 1 2 3 2 1 3 2 3 1 3 2 10 4 11 16 13 10 5 4 7 9 11 11 9 12 13 12 11 8 8 9 8
22 22 21 22 20 15 9 6 6 3 4 5 6 3 1 1 3 9 6 3 1 3 3 3 5 6 8 8 4 5 6 4 5 6 5 4 4 5 5 5 4 1 3 4 4 5 6 8 7 1 1 5 5 1 1 2 0 3 4 4 1 3 2 1 2 2 5 10 4 10 13 11 13 9 4 6 7 10 11 10 12 13 11 10 8 8 8 8
24 24 23 24 23 21 17 13 11 8 4 2 4 1 0 2 8 9 5 2 1 1 2 2 6 6 5 4 3 4 4 3 6 7 5 6 5 6 8 8 5 2 4 4 2 2 3 6 7 4 3 5 8 6 4 2 4 7 6 6 5 3 3 4 4 3 7 9 4 5 9 6 8 6 10 13 11 11 11 11 11 10 10 9 8 9 7 8
27 25 26 27 27 26 23 19 17 13 6 7 5 2 1 6 9 3 3 6 5 1 1 2 5 7 5 4 3 6 4 3 6 7 5 6 4 4 6 9 10 6 3 1 3 3 4 8 7 9 3 7 13 13 11 3 4 9 6 5 6 5 3 4 5 6 7 6 4 2 5 4 3 3 12 16 15 12 11 11 10 8 8 6 5 7 7 7
29 28 29 29 28 28 25 22 20 16 11 8 4 3 4 8 7 3 3 5 5 3 1 1 3 5 5 5 3 5 6 5 6 7 5 6 6 5 5 7 12 9 2 2 3 3 6 10 6 8 2 9 11 10 8 4 1 5 4 3 6 4 5 5 7 8 4 4 5 4 4 6 4 5 9 11 11 11 11 12 11 9 8 5 5 6 7 7
28 28 27 28 27 28 28 25 23 20 15 8 4 5 8 8 5 3 3 3 5 3 2 1 3 4 5 4 4 6 5 3 5 6 4 6 7 7 6 5 11 14 9 6 4 3 5 7 2 4 2 5 6 3 3 3 1 2 4 4 5 2 5 5 7 6 2 5 9 6 6 7 6 9 12 11 10 10 10 12 13 12 10 8 7 7 7 7
25 22 19 23 26 26 30 29 26 23 14 6 6 7 8 8 7 6 3 4 6 3 2 4 4 5 5 4 4 7 5 2 5 5 3 4 5 8 9 6 10 17 15 11 4 4 7 6 2 3 2 1 2 3 2 0 3 4 3 4 2 3 1 2 2 3 3 7 8 8 12 10 7 9 5 8 12 12 11 13 16 14 10 8 8 8 8 9
16 11 12 21 27 26 29 31 28 20 9 4 8 9 7 6 6 7 6 6 7 7 5 6 5 5 6 6 5 7 7 5 5 6 4 3 4 7 10 7 9 16 19 15 7 4 4 5 5 2 0 2 2 2 2 2 4 6 2 3 1 0 2 2 2 2 5 7 7 10 15 12 10 11 5 5 13 13 13 16 16 13 10 8 8 9 9 8
7 4 5 12 20 26 30 32 24 12 4 5 9 8 6 6 6 6 7 7 6 7 10 9 7 6 7 9 7 4 8 8 6 5 5 5 6 7 9 6 7 12 17 16 9 4 2 4 5 1 2 2 2 1 3 0 1 2 2 3 1 2 2 3 3 3 5 7 8 10 14 12 9 8 7 9 12 13 15 15 12 10 10 9 8 9 9 8
2 3 2 1 11 24 31 27 15 5 4 5 7 7 5 5 6 6 8 8 5 5 8 10 9 8 9 9 8 5 6 7 6 5 5 5 5 5 6 7 6 8 12 12 10 5 2 4 7 1 2 1 1 3 7 6 5 3 1 3 3 2 1 1 3 3 5 6 7 7 10 13 6 1 5 9 10 12 13 10 8 9 10 9 9 9 9 8
2 3 2 6 17 27 27 15 5 4 4 3 5 8 6 4 3 6 7 6 4 2 1 4 5 5 6 7 8 5 3 4 5 5 4 5 7 4 0 1 2 2 2 3 5 4 3 4 7 3 3 5 4 5 9 9 7 6 6 8 8 6 4 4 6 7 5 4 6 6 9 14 6 4 2 6 10 11 10 9 8 8 9 9 9 10 10 9
3 3 3 15 27 30 20 5 3 3 3 4 4 4 4 3 5 7 6 3 4 3 1 1 4 4 4 6 8 6 3 3 5 6 6 7 9 6 3 7 5 3 3 2 4 3 3 3 5 6 6 7 6 2 4 4 4 4 5 6 7 7 6 7 10 8 5 4 6 6 10 15 8 4 4 2 6 7 8 8 7 7 9 10 9 10 10 9
4 2 5 20 33 29 12 2 3 3 4 3 3 5 4 3 3 4 6 6 5 4 2 3 6 8 8 7 8 7 5 4 5 8 9 6 6 5 1 6 4 3 1 3 4 2 2 2 5 6 5 6 8 6 2 1 1 3 5 4 5 6 7 9 8 6 7 7 7 7 10 14 9 0 3 5 6 5 6 7 8 8 8 8 9 10 9 10
3 2 3 19 35 26 7 4 5 6 7 5 6 8 7 5 5 6 8 8 7 4 5 7 8 8 8 7 7 6 6 5 5 7 8 4 4 6 5 5 5 2 1 3 2 2 2 2 2 4 4 5 7 8 6 2 1 2 6 6 8 9 10 10 6 4 7 10 12 12 11 12 9 4 6 7 6 8 11 8 8 8 7 8 8 9 9 11
2 2 1 12 26 18 6 6 7 7 8 10 13 13 11 7 7 12 15 13 11 7 5 6 5 5 5 4 6 8 9 8 6 4 4 4 6 8 11 14 12 9 8 5 2 1 3 2 2 3 6 6 7 8 6 2 2 2 5 9 12 13 12 11 7 6 9 11 14 14 12 12 14 13 12 12 11 12 13 12 8 7 9 9 8 9 10 11
2 3 1 5 11 10 6 6 8 7 8 10 10 11 15 13 9 13 17 14 13 13 11 6 2 1 3 5 7 10 12 12 9 5 4 5 6 5 7 12 13 15 16 9 5 3 2 3 5 9 11 11 12 13 9 4 4 5 8 10 11 11 12 10 7 9 10 11 12 14 15 17 18 21 23 22 20 17 17 17 14 13 13 10 8 10 11 10
3 3 3 2 3 6 7 6 6 6 7 9 6 5 13 17 11 9 12 11 12 15 12 8 7 7 7 9 11 12 13 14 13 11 10 9 9 8 6 7 9 12 15 11 8 6 2 6 12 16 19 18 18 20 18 14 13 14 15 16 14 12 12 10 10 13 11 11 14 15 17 19 18 20 25 26 24 21 17 16 16 16 15 10 8 10 11 9
3 3 2 2 1 4 6 6 7 8 8 10 8 7 14 18 14 11 10 10 12 12 8 7 13 17 17 15 13 11 11 12 11 11 12 12 12 12 9 8 8 8 7 6 6 6 4 8 13 17 21 23 22 23 23 21 20 19 19 21 20 18 16 15 18 19 17 16 17 15 17 21 20 20 23 25 25 23 19 17 18 18 16 15 13 11 9 9
3 3 3 4 3 3 4 4 4 6 9 9 7 9 13 17 17 15 10 8 9 10 11 13 15 19 22 22 17 12 11 11 12 12 12 13 14 12 9 9 9 8 10 8 5 5 5 7 12 16 19 20 22 23 24 24 23 21 20 21 22 21 22 21 22 23 23 23 20 19 23 26 23 22 24 25 24 21 18 19 21 21 20 20 20 13 8 9
3 2 2 3 4 5 6 6 4 4 7 7 6 7 11 15 18 14 10 11 11 8 12 18 20 19 20 21 19 17 16 17 19 18 15 14 13 10 8 9 8 6 7 8 5 4 6 9 12 13 13 15 18 21 23 23 22 23 23 20 19 20 23 25 24 22 22 22 22 24 25 23 21 24 26 24 20 17 19 23 25 23 21 22 22 14 8 9
5 4 3 3 4 5 6 6 5 5 5 5 6 7 9 13 15 14 11 12 15 13 12 18 22 18 17 19 21 22 22 23 25 25 21 17 13 11 9 9 11 8 6 7 6 5 7 8 8 8 8 10 14 18 22 23 23 24 22 20 21 23 23 23 21 20 19 20 23 23 20 17 19 21 20 18 17 18 21 25 26 23 21 23 21 14 10 12
6 4 2 2 3 4 5 6 6 7 6 5 7 8 9 10 10 11 11 8 11 15 12 11 13 11 12 17 18 16 16 17 18 19 18 17 16 16 11 8 11 11 7 7 6 5 7 7 6 7 8 8 12 18 21 19 17 15 16 21 28 29 26 23 20 20 22 20 18 17 17 18 18 16 15 17 19 21 23 24 23 21 22 23 19 15 14 15
Wind_Direction
3 4 5 7 8 9 9 10 12 13 14 13 14 14 12 10 6 3 2 1 359 356 344 325 326 323 284 255 248 257 269 279 294 283 248 252 255 251 260 265 275 278 281 302 239 210 220 206 214 209 199 171 191 212 152 168 184 177 205 224 245 249 255 294 332 357 27 343 123 179 189 220 226 162 147 108 235 243 219 228 202 206 178 108 126 136 141 149
354 354 356 357 358 360 360 1 3 4 6 6 5 6 6 4 2 360 358 356 354 354 347 330 324 325 310 271 250 252 267 276 278 268 254 255 254 251 260 265 265 262 266 277 233 236 241 232 212 187 187 207 189 168 149 167 155 202 238 251 246 262 273 294 338 351 12 332 329 177 184 224 228 165 138 176 224 213 228 239 209 216 181 120 137 143 145 153
347 347 348 349 350 352 352 352 354 355 357 359 359 359 360 360 359 356 354 353 350 350 347 333 324 324 318 291 258 247 267 284 277 261 248 242 238 239 247 254 251 248 249 251 261 275 284 295 287 217 202 234 203 169 177 175 157 212 223 256 253 278 315 318 345 353 11 2 323 292 175 194 249 174 119 222 247 222 225 229 204 218 211 167 159 153 153 161
341 341 341 342 344 344 345 345 346 347 348 350 352 352 354 354 355 354 351 351 348 347 345 335 326 324 322 307 257 232 261 289 274 233 226 222 219 223 227 234 239 239 238 247 272 281 285 288 286 265 232 250 230 185 181 179 165 213 194 233 262 286 319 334 22 23 29 36 329 302 314 213 254 224 154 204 254 245 233 228 213 216 215 186 165 166 166 169
336 336 336 336 337 338 338 338 339 339 341 342 344 345 347 348 350 352 350 349 347 346 344 335 326 324 326 313 230 205 248 279 266 1 230 212 207 207 207 214 222 231 228 235 267 271 272 269 263 258 240 260 249 203 212 201 175 259 235 243 264 274 285 324 58 40 43 54 314 283 276 259 239 216 197 203 231 240 224 227 226 219 219 187 170 173 173 176
332 332 333 332 332 334 333 333 333 333 334 335 337 339 341 342 345 347 347 347 346 345 343 335 328 326 328 317 188 183 233 269 143 73 235 200 199 196 191 201 211 223 215 220 261 265 261 259 244 238 235 250 253 244 235 190 162 244 253 251 265 273 277 280 79 73 61 222 240 250 283 305 248 244 230 218 231 239 232 224 114 89 118 159 165 170 175 185
331 330 329 330 330 329 330 329 328 329 330 330 332 334 335 337 339 342 344 344 343 343 340 330 323 327 345 98 135 191 243 273 248 176 174 176 188 191 191 196 203 205 192 208 239 246 251 254 247 247 248 250 260 263 260 131 157 229 262 265 277 290 283 289 67 151 197 233 242 273 0 288 237 245 249 237 239 239 243 247 159 116 96 124 155 173 182 190
329 327 327 328 327 326 326 325 325 325 326 326 328 330 332 333 333 337 338 339 340 340 337 322 312 319 22 122 148 247 240 248 234 196 183 184 187 190 193 194 201 193 185 212 232 257 277 264 260 267 267 269 318 319 358 110 200 223 253 263 273 292 274 276 228 183 208 231 244 276 278 250 239 257 270 254 251 242 238 239 198 152 137 140 162 181 188 195
328 326 326 326 325 323 322 322 322 321 321 322 323 325 328 329 330 332 334 335 335 337 335 314 298 292 220 181 267 269 244 226 218 209 200 199 197 196 196 192 197 188 192 220 232 254 269 273 274 310 317 300 309 307 324 210 230 218 261 289 303 296 287 276 250 213 212 223 209 234 250 250 247 275 272 255 250 248 240 238 218 170 177 185 180 185 190 198
330 329 328 327 326 323 321 321 320 319 318 316 317 320 322 325 325 327 330 331 331 334 331 305 289 268 221 218 255 256 254 231 216 217 222 217 208 202 199 195 190 189 212 221 217 232 240 290 305 70 14 304 288 285 208 191 257 290 296 305 297 285 282 271 260 238 217 221 195 208 244 254 233 188 256 254 241 235 228 234 228 200 203 207 200 196 193 200
333 333 332 331 330 326 324 322 322 320 316 313 312 313 315 319 320 321 325 327 327 330 323 295 269 243 226 233 246 243 240 232 218 214 220 219 210 202 205 205 198 197 217 224 215 227 251 284 239 113 78 296 312 287 204 209 333 330 327 307 283 275 270 252 248 240 220 223 196 197 254 266 216 189 246 250 199 196 209 224 226 215 217 208 210 210 197 206
334 335 334 334 333 329 327 325 324 321 316 312 309 308 309 311 312 314 317 321 324 327 320 287 253 228 233 251 242 238 238 228 222 223 217 216 211 209 215 218 212 204 214 239 225 218 233 249 193 220 243 226 315 292 240 5 338 305 338 302 281 278 271 253 242 225 203 208 173 166 272 266 228 220 244 248 213 189 209 222 221 215 220 210 213 216 208 213
333 334 334 335 334 332 330 328 326 322 317 314 310 308 307 305 305 305 308 311 316 323 313 269 240 218 229 267 238 229 236 234 231 235 226 223 220 219 226 227 224 217 220 247 245 203 211 211 195 232 265 264 272 296 284 267 258 269 253 255 278 290 271 255 243 207 183 181 146 143 256 261 240 225 236 248 211 193 217 223 220 216 221 217 216 219 216 212
330 332 334 335 335 334 333 332 329 323 318 315 311 309 309 307 300 295 297 302 308 312 296 242 219 206 220 261 250 233 232 234 231 231 226 214 198 218 230 223 226 226 226 240 248 215 204 191 201 251 273 229 256 354 315 262 208 253 266 251 256 278 272 270 240 169 164 173 149 150 242 256 267 246 233 235 192 182 211 218 218 220 223 225 220 221 221 212
326 329 332 334 335 335 336 336 332 326 321 317 314 313 313 311 299 288 286 289 293 287 263 214 203 195 271 259 252 243 230 233 226 217 218 194 179 213 209 194 205 209 214 226 227 212 189 174 199 253 244 166 282 309 287 270 237 219 248 267 233 224 266 278 150 161 167 182 169 164 237 249 260 269 253 208 172 176 208 217 217 221 225 229 224 221 224 221
322 325 328 332 333 334 337 337 334 329 325 320 318 318 316 312 297 280 277 274 275 248 199 193 201 200 293 268 229 249 221 219 211 203 209 191 184 195 168 159 174 182 195 207 201 186 173 186 229 256 226 192 198 219 254 277 262 219 198 245 244 235 266 268 170 189 170 125 187 197 233 253 236 250 333 141 173 183 209 220 219 222 226 229 229 221 220 224
317 320 324 329 331 333 337 337 334 331 328 324 322 322 319 312 287 272 270 252 238 199 188 216 199 189 247 254 236 261 189 187 196 196 208 197 184 169 158 162 175 171 162 171 177 178 184 195 164 94 226 222 213 206 235 259 258 242 211 235 244 237 257 260 273 246 179 139 200 212 234 256 246 242 253 189 193 198 214 227 235 238 237 238 238 226 217 218
313 315 319 325 329 334 337 338 335 332 330 327 327 325 319 309 281 265 241 196 163 150 207 264 243 197 232 228 223 179 126 164 183 189 202 196 186 177 181 193 176 165 162 181 194 183 186 193 176 223 250 221 208 197 204 229 238 252 247 258 262 249 253 259 277 215 179 182 215 212 230 249 254 257 261 251 224 215 223 228 244 250 248 250 249 237 225 215
311 312 316 321 328 333 337 339 335 334 333 329 332 331 315 306 282 232 182 169 147 145 227 213 190 205 218 192 184 122 114 147 167 189 193 187 185 184 203 216 176 181 187 186 194 181 172 192 195 228 246 223 207 204 213 230 241 258 266 270 270 273 270 265 274 189 179 196 218 218 231 247 252 246 248 256 247 237 237 229 238 248 248 252 252 243 230 224
311 312 314 319 327 334 338 341 336 337 338 335 341 341 315 305 295 216 178 198 217 244 282 217 190 217 239 140 133 136 140 157 175 190 179 175 170 162 202 218 174 209 223 196 182 174 168 188 201 223 238 231 213 215 224 234 244 255 264 267 266 271 270 269 276 211 185 195 222 224 232 247 255 249 242 252 257 256 254 246 244 246 249 252 252 245 233 233
312 312 315 320 327 332 337 342 339 338 342 345 348 340 338 8 305 308 322 240 236 241 263 249 208 229 247 135 147 158 141 190 209 178 174 176 162 152 186 192 175 212 221 214 200 79 193 207 218 230 240 245 237 235 236 239 245 251 256 266 272 265 266 274 278 199 180 195 237 240 245 252 256 257 251 248 250 253 254 255 255 252 256 260 255 246 236 226
313 313 318 322 328 332 338 342 340 341 347 355 351 332 18 20 306 132 348 270 249 236 248 250 234 248 249 175 173 166 120 236 225 176 172 177 172 179 183 173 194 214 190 199 221 234 224 227 234 238 249 258 255 254 252 256 258 260 267 275 274 268 273 280 269 178 163 182 244 251 255 261 263 261 255 249 246 247 247 249 255 255 258 262 258 251 234 184
309 314 319 323 329 332 338 341 344 0 1 359 357 342 354 357 41 101 195 271 275 248 240 237 233 239 234 224 190 176 202 232 233 202 176 173 180 200 192 181 208 226 187 191 211 224 229 228 235 242 252 254 254 249 237 261 264 245 250 260 263 261 267 279 253 176 182 208 243 268 269 266 270 267 257 251 247 248 248 246 253 256 254 256 256 253 220 179
304 310 313 321 326 331 340 341 352 18 354 347 352 339 338 317 84 59 267 266 267 234 225 226 225 228 226 227 186 186 221 222 225 211 175 170 165 175 208 202 210 231 219 215 218 231 243 235 218 235 239 239 245 243 224 246 259 234 217 228 252 255 250 257 256 211 211 229 237 294 290 262 250 255 255 249 240 242 244 241 249 253 252 256 256 247 212 179
300 301 306 316 319 329 340 340 360 358 340 340 350 334 336 290 202 32 4 268 254 232 262 230 210 224 216 199 172 175 239 229 226 184 168 175 169 151 203 205 208 231 225 229 233 241 250 238 209 220 223 220 229 239 218 215 257 257 210 217 241 254 255 260 275 307 306 268 219 95 294 265 214 228 249 244 212 229 234 230 240 245 247 254 258 248 214 182
294 295 301 306 310 327 339 339 346 340 330 339 348 332 325 292 267 357 25 270 257 200 94 192 179 200 193 169 156 134 4 262 254 115 160 184 191 166 215 187 204 238 221 229 243 245 245 213 197 214 219 220 226 249 227 206 256 270 221 220 242 254 261 262 274 285 254 262 242 115 316 283 246 223 241 230 194 219 223 225 238 243 241 238 248 251 210 175
287 289 293 294 302 323 339 322 327 337 332 319 338 330 316 302 279 290 335 286 269 162 127 219 214 169 168 152 146 134 226 260 65 96 159 196 213 188 231 201 197 232 200 227 260 239 196 165 158 201 212 218 223 246 229 198 235 266 258 253 248 255 264 260 259 242 232 287 277 150 139 277 276 243 219 213 206 228 228 228 240 247 243 225 226 242 208 175
280 281 284 285 291 304 314 307 317 336 310 309 325 320 314 315 287 293 294 277 267 124 124 219 72 83 94 352 254 151 237 218 103 5 13 6 236 187 229 225 228 226 164 179 238 266 152 180 199 198 194 217 222 241 225 184 211 252 30 43 74 73 296 314 255 251 280 319 269 183 150 251 279 255 184 199 203 224 229 227 238 246 248 232 214 224 206 184
275 274 274 275 279 285 291 292 290 295 299 309 319 315 320 320 293 17 268 260 232 110 123 141 116 115 108 40 284 233 335 39 134 282 15 322 236 207 236 240 263 260 238 215 234 268 33 185 225 188 183 224 219 332 23 164 205 220 116 71 68 65 12 43 251 271 339 282 242 190 160 224 276 261 159 192 204 217 226 224 233 242 249 245 219 211 199 185
272 270 268 263 265 274 277 265 255 283 313 318 312 318 326 293 291 151 240 250 309 77 95 99 134 146 136 132 227 229 222 177 83 127 179 208 180 296 274 271 296 274 274 267 261 265 215 94 342 207 194 208 130 79 35 98 168 178 134 71 46 296 19 43 249 89 331 268 237 189 183 199 267 262 151 181 197 199 209 213 230 241 248 249 227 199 189 180
270 269 262 252 248 244 245 239 239 270 318 323 321 334 318 280 123 222 236 245 356 188 129 156 170 136 155 179 194 194 202 212 138 152 189 186 157 188 255 242 149 314 299 284 272 264 242 162 209 266 197 131 109 105 19 68 127 129 121 104 8 300 18 32 303 99 237 267 224 179 188 192 234 254 152 200 200 189 199 201 214 229 239 244 227 196 185 175
268 267 260 253 247 233 226 226 210 230 306 337 358 0 281 283 227 235 234 67 29 205 150 166 176 161 188 208 211 163 174 204 174 176 193 167 176 197 207 206 162 136 268 245 248 253 247 230 203 213 304 170 155 146 20 357 256 142 135 135 131 284 316 320 251 146 226 260 232 176 182 200 236 242 211 241 219 193 205 205 206 213 222 230 215 194 182 167
269 266 257 253 248 233 227 224 215 227 248 60 51 12 349 219 236 239 217 181 244 172 71 120 172 183 189 200 219 166 173 214 165 181 204 172 196 218 212 220 204 228 252 223 244 239 266 261 189 166 297 189 167 185 221 261 192 178 162 148 165 208 249 248 242 239 244 260 277 175 176 215 267 242 205 224 225 201 203 212 211 204 206 216 205 190 177 167
271 265 255 252 248 240 233 222 219 224 191 117 87 63 150 226 245 260 175 213 240 233 30 58 156 185 201 212 195 154 186 235 158 171 198 167 195 228 210 218 219 234 263 253 279 203 250 284 189 164 215 179 180 209 217 172 165 196 177 157 194 198 209 238 233 245 261 278 291 178 173 215 278 213 195 208 219 206 195 208 219 216 210 201 172 169 167 171
271 263 257 249 239 236 228 214 217 212 166 124 104 124 184 229 249 282 254 245 258 237 188 47 160 185 220 231 198 174 204 228 166 166 194 188 202 218 198 195 201 205 184 213 254 181 235 272 196 155 164 165 181 226 216 116 108 220 151 160 231 207 193 243 255 247 273 317 273 223 210 233 251 252 221 211 220 215 202 206 215 229 222 176 154 174 175 179
268 259 253 239 229 229 219 209 210 197 165 130 126 174 206 225 221 215 259 269 255 232 142 239 211 195 231 224 195 209 218 223 182 169 197 217 226 226 204 178 189 195 190 193 219 192 235 276 156 118 9 155 172 250 200 149 233 201 135 195 238 166 169 224 270 272 275 281 272 256 249 267 301 277 239 211 213 212 203 206 212 225 220 191 191 200 193 194
261 253 243 235 231 226 218 212 198 178 159 141 170 199 215 226 224 222 278 324 297 294 168 215 209 184 222 235 202 201 192 192 187 173 182 208 228 224 212 212 191 192 201 204 219 240 236 263 228 163 309 266 239 308 291 168 119 128 172 239 292 20 62 187 267 305 270 256 272 275 268 277 290 280 249 186 204 207 197 206 215 220 215 206 213 215 209 203
259 248 245 243 236 226 217 207 184 161 141 158 202 223 222 216 219 222 260 296 303 306 278 243 222 194 220 250 236 187 173 189 178 173 201 207 217 198 189 214 201 193 205 207 219 264 229 255 266 180 57 337 352 313 284 358 91 131 209 287 53 61 260 189 187 232 249 253 271 277 278 278 254 262 291 198 201 201 197 206 214 214 211 211 220 229 225 202
272 246 268 254 236 226 209 190 170 149 143 178 207 228 221 228 231 223 252 258 249 263 262 254 244 233 241 255 260 200 175 194 180 175 206 206 223 202 173 196 209 200 204 198 207 240 176 228 256 334 357 345 13 241 190 231 37 101 10 346 72 178 193 189 203 211 225 243 266 277 283 280 249 247 259 217 196 195 199 205 211 210 211 212 214 228 227 203
251 230 287 220 207 204 187 170 153 148 188 191 214 226 229 257 247 231 245 251 245 247 250 252 250 247 251 255 264 253 199 202 194 198 212 201 229 229 178 187 203 205 205 196 203 209 141 230 235 276 335 279 222 197 178 185 202 181 234 253 225 211 183 242 255 232 219 234 251 260 271 274 264 197 221 199 181 192 196 197 209 211 215 217 214 225 227 216
187 245 256 158 179 175 160 149 152 177 201 229 232 233 243 273 280 258 252 254 270 289 255 263 261 265 274 266 262 259 225 215 211 213 221 216 233 251 206 222 210 178 164 170 206 197 146 223 226 212 233 234 234 201 191 202 205 194 205 214 215 207 197 256 255 232 221 235 240 242 262 266 264 78 117 177 181 201 195 188 206 212 222 227 219 223 225 220
223 264 167 166 172 161 145 152 223 182 214 230 233 248 247 247 267 267 261 255 261 262 40 307 260 255 270 270 266 268 265 242 220 221 233 230 228 229 24 25 31 63 87 152 222 221 139 180 225 228 232 250 270 225 176 220 248 251 237 220 218 203 192 226 243 244 246 235 236 244 255 260 264 51 48 151 169 189 179 173 196 211 222 229 227 230 231 228
228 253 150 170 171 159 147 215 215 216 238 241 283 275 247 241 249 249 247 240 236 235 231 253 258 252 247 251 261 263 255 240 220 229 247 258 245 232 76 51 41 38 72 206 230 227 122 146 220 241 264 287 291 293 299 352 4 268 264 241 223 216 215 231 241 257 259 240 241 251 250 259 272 85 185 190 163 192 210 198 212 230 234 233 236 238 238 238
243 271 142 178 178 169 168 213 198 226 231 241 266 251 247 256 233 231 240 228 213 205 219 231 237 240 240 246 256 251 244 247 248 254 262 276 280 275 292 303 291 285 232 230 237 220 224 230 219 241 267 286 293 290 281 290 89 226 244 238 237 239 243 252 258 259 255 246 247 253 253 261 271 229 204 220 226 248 257 238 217 231 246 243 241 241 237 238
262 252 150 187 190 190 208 214 213 228 217 224 237 234 241 247 216 224 236 234 223 208 213 233 227 219 223 235 251 245 236 240 257 280 274 264 277 280 276 271 266 256 242 225 97 94 231 203 126 192 223 231 246 254 245 201 139 217 236 236 241 243 243 251 256 248 248 243 240 248 256 262 270 270 261 258 258 260 269 270 258 252 256 249 242 245 240 235
267 240 198 183 201 217 233 218 225 232 215 222 232 226 231 236 224 221 228 237 237 224 224 232 190 175 212 215 240 247 241 239 237 230 219 225 248 261 254 254 252 251 249 224 139 111 188 174 185 204 215 222 231 240 240 215 209 237 242 235 233 236 238 241 243 244 251 254 246 248 257 262 268 274 275 273 273 272 276 284 288 283 275 262 238 239 241 234
276 258 222 187 215 229 234 233 233 227 211 213 212 199 222 234 239 223 215 221 226 226 232 228 203 210 216 215 234 243 240 240 236 231 231 228 237 250 253 255 250 248 248 226 172 149 165 208 213 216 222 227 231 240 247 247 243 242 244 244 238 231 231 233 239 241 246 259 255 247 256 266 266 267 272 276 277 277 278 282 284 280 278 272 249 242 245 242
264 268 265 329 304 222 227 237 239 243 231 216 209 211 226 233 233 223 216 221 221 215 219 223 212 217 223 222 230 236 233 240 239 231 233 235 241 253 257 253 243 222 215 218 186 163 190 227 221 220 227 228 229 237 242 246 247 242 241 245 246 243 237 236 242 241 235 242 249 246 250 257 258 257 263 269 274 278 282 282 280 279 280 279 270 255 242 239
280 274 295 333 309 263 275 287 279 267 254 243 234 224 231 237 234 227 221 230 233 209 209 230 223 216 222 224 227 233 228 233 239 229 224 227 228 237 251 248 240 210 191 203 202 173 195 224 219 223 232 229 227 233 237 241 248 249 245 243 246 251 250 246 246 243 239 242 249 251 250 252 255 258 259 263 269 277 283 282 278 279 281 280 276 265 241 234
280 289 312 327 308 296 295 290 292 287 264 260 259 245 248 253 249 246 233 230 241 218 205 229 234 223 224 224 226 234 228 227 238 235 227 228 222 220 233 233 232 221 197 201 207 197 212 223 217 222 236 233 228 231 235 237 242 247 249 249 249 253 254 251 247 244 244 248 248 249 251 254 256 257 258 262 268 275 279 277 276 277 277 275 275 270 246 234
286 320 336 315 299 291 281 271 265 268 258 240 243 253 260 259 259 266 263 245 251 251 229 235 242 238 235 231 230 236 236 233 240 240 236 235 228 214 215 215 213 211 192 193 204 193 206 230 230 227 242 236 225 231 236 236 238 241 245 251 251 247 245 244 243 240 242 247 249 250 252 253 252 254 259 263 265 267 269 269 271 272 271 270 272 272 256 244
294 318 334 297 290 269 268 278 268 263 262 245 249 256 257 261 267 272 276 265 252 258 265 269 272 270 256 248 246 253 262 259 258 260 256 256 253 241 231 218 210 205 184 187 204 189 192 216 225 223 241 241 224 230 237 237 240 237 230 234 240 241 243 244 245 246 243 241 245 247 245 247 250 255 261 262 259 257 256 258 261 265 268 269 272 273 262 248